[Date Prev][Date Next][Thread Prev][Thread Next] - [Date Index][Thread Index][Author Index]
2 Line ISS Keps 1-12
- Subject: [sarex] 2 Line ISS Keps 1-12
- From: "Dave Larsen PhD" <doc@xxxxxxxxxxx>
- Date: Tue, 11 Jan 2005 18:37:02 -0800
ISS
1 25544U 98067A 05011.97218179 .00021562 00000-0 16085-3 0 5671
2 25544 51.6403 339.6026 0003145 187.1360 276.8058 15.72685459351129
----
Via the sarex mailing list at AMSAT.ORG courtesy of AMSAT-NA.
To unsubscribe, send "unsubscribe sarex" to Majordomo@amsat.org
AMSAT Home